| time (UTC) | temp F | wind direction | speed MPH | gust MPH | rain 1hr in | rain 24hr in | rain mn in | humidity % | barometer mb |
| 20260506213303 | 71 | 224 | 3.0 | 10.0 | 0.00 | 0.10 | 0.10 | 76 | 1005.9 |
| 20260506212803 | 71 | 230 | 5.0 | 12.0 | 0.00 | 0.10 | 0.10 | 76 | 1005.9 |
| 20260506211803 | 71 | 217 | 4.0 | 9.0 | 0.00 | 0.10 | 0.10 | 76 | 1005.9 |
| 20260506211303 | 71 | 237 | 5.0 | 10.0 | 0.00 | 0.10 | 0.10 | 75 | 1005.8 |
| 20260506210803 | 71 | 190 | 5.0 | 10.0 | 0.00 | 0.10 | 0.10 | 76 | 1005.9 |
| 20260506210303 | 71 | 233 | 3.0 | 8.0 | 0.00 | 0.10 | 0.10 | 76 | 1005.8 |
| 20260506205805 | 71 | 224 | 5.0 | 12.0 | 0.00 | 0.10 | 0.10 | 75 | 1005.7 |
| 20260506205306 | 71 | 226 | 5.0 | 12.0 | 0.00 | 0.10 | 0.10 | 76 | 1005.6 |
| 20260506204805 | 71 | 214 | 7.0 | 12.0 | 0.00 | 0.10 | 0.10 | 75 | 1005.6 |
| 20260506204304 | 71 | 210 | 5.0 | 13.0 | 0.00 | 0.10 | 0.10 | 76 | 1005.7 |
| 20260506203304 | 71 | 203 | 7.0 | 12.0 | 0.00 | 0.10 | 0.10 | 75 | 1005.7 |
| 20260506202803 | 71 | 217 | 9.0 | 14.0 | 0.00 | 0.10 | 0.10 | 75 | 1005.8 |
| 20260506202306 | 71 | 221 | 7.0 | 12.0 | 0.00 | 0.10 | 0.10 | 76 | 1005.6 |
| 20260506201804 | 71 | 178 | 6.0 | 12.0 | 0.00 | 0.10 | 0.10 | 75 | 1005.6 |
| 20260506201304 | 71 | 215 | 7.0 | 14.0 | 0.00 | 0.10 | 0.10 | 75 | 1005.6 |
| 20260506200803 | 71 | 211 | 6.0 | 12.0 | 0.00 | 0.10 | 0.10 | 74 | 1005.6 |
| 20260506200304 | 71 | 192 | 6.0 | 9.0 | 0.00 | 0.10 | 0.10 | 75 | 1005.7 |
| 20260506195804 | 71 | 262 | 3.0 | 10.0 | 0.00 | 0.10 | 0.10 | 75 | 1005.7 |
| 20260506195306 | 71 | 183 | 7.0 | 12.0 | 0.00 | 0.10 | 0.10 | 75 | 1005.7 |
| 20260506194803 | 71 | 177 | 2.0 | 13.0 | 0.00 | 0.10 | 0.10 | 76 | 1005.7 |
| 20260506193804 | 71 | 211 | 7.0 | 16.0 | 0.00 | 0.10 | 0.10 | 76 | 1005.8 |
| 20260506193304 | 71 | 199 | 6.0 | 15.0 | 0.00 | 0.10 | 0.10 | 77 | 1005.7 |
| 20260506192804 | 70 | 216 | 3.0 | 9.0 | 0.00 | 0.10 | 0.10 | 78 | 1005.7 |
| 20260506192305 | 70 | 214 | 3.0 | 13.0 | 0.00 | 0.10 | 0.10 | 78 | 1005.8 |
| 20260506191803 | 69 | 240 | 5.0 | 10.0 | 0.00 | 0.10 | 0.10 | 79 | 1005.8 |
| 20260506191303 | 69 | 201 | 7.0 | 14.0 | 0.00 | 0.10 | 0.10 | 79 | 1005.9 |
| 20260506190803 | 69 | 177 | 8.0 | 20.0 | 0.00 | 0.10 | 0.10 | 78 | 1005.9 |
| 20260506190303 | 69 | 205 | 8.0 | 15.0 | 0.00 | 0.10 | 0.10 | 79 | 1006.1 |
| 20260506185803 | 69 | 180 | 5.0 | 13.0 | 0.00 | 0.10 | 0.10 | 80 | 1006.0 |
| 20260506185306 | 68 | 211 | 9.0 | 14.0 | 0.00 | 0.10 | 0.10 | 80 | 1006.2 |
| 20260506184303 | 67 | 223 | 8.0 | 14.0 | 0.00 | 0.10 | 0.10 | 81 | 1006.4 |
| 20260506183803 | 67 | 202 | 8.0 | 18.0 | 0.00 | 0.10 | 0.10 | 82 | 1006.3 |
| 20260506183303 | 67 | 199 | 6.0 | 14.0 | 0.00 | 0.10 | 0.10 | 82 | 1006.4 |
| 20260506182804 | 67 | 206 | 7.0 | 15.0 | 0.00 | 0.10 | 0.10 | 82 | 1006.4 |
| 20260506182306 | 67 | 188 | 6.0 | 16.0 | 0.00 | 0.10 | 0.10 | 82 | 1006.4 |
| 20260506181804 | 67 | 206 | 9.0 | 18.0 | 0.00 | 0.10 | 0.10 | 82 | 1006.4 |
| 20260506181303 | 66 | 198 | 8.0 | 15.0 | 0.00 | 0.10 | 0.10 | 83 | 1006.5 |
| 20260506180304 | 66 | 231 | 12.0 | 20.0 | 0.00 | 0.10 | 0.10 | 82 | 1006.7 |
| 20260506175803 | 66 | 231 | 11.0 | 17.0 | 0.00 | 0.10 | 0.10 | 83 | 1006.7 |
| 20260506175306 | 66 | 227 | 12.0 | 20.0 | 0.00 | 0.10 | 0.10 | 83 | 1006.7 |
| 20260506174804 | 66 | 237 | 10.0 | 16.0 | 0.00 | 0.10 | 0.10 | 84 | 1006.6 |
| 20260506174304 | 66 | 221 | 7.0 | 21.0 | 0.00 | 0.10 | 0.10 | 84 | 1006.6 |
| 20260506173803 | 66 | 214 | 7.0 | 18.0 | 0.00 | 0.10 | 0.10 | 86 | 1006.5 |
| 20260506172804 | 65 | 227 | 9.0 | 16.0 | 0.00 | 0.10 | 0.10 | 87 | 1006.7 |
| 20260506172306 | 65 | 208 | 9.0 | 18.0 | 0.00 | 0.10 | 0.10 | 87 | 1006.8 |
| 20260506171804 | 65 | 214 | 11.0 | 20.0 | 0.00 | 0.10 | 0.10 | 87 | 1006.7 |
| 20260506171304 | 65 | 195 | 10.0 | 16.0 | 0.00 | 0.10 | 0.10 | 88 | 1006.7 |
| 20260506170804 | 64 | 213 | 3.0 | 16.0 | 0.00 | 0.10 | 0.10 | 89 | 1006.7 |
| 20260506170303 | 64 | 185 | 5.0 | 15.0 | 0.00 | 0.10 | 0.10 | 89 | 1006.7 |
| 20260506165804 | 64 | 201 | 10.0 | 18.0 | 0.00 | 0.10 | 0.10 | 90 | 1006.7 |
| 20260506165305 | 63 | 198 | 7.0 | 18.0 | 0.00 | 0.10 | 0.10 | 90 | 1006.8 |
| 20260506164803 | 63 | 208 | 9.0 | 21.0 | 0.00 | 0.10 | 0.10 | 90 | 1006.9 |
| 20260506164303 | 63 | 200 | 8.0 | 17.0 | 0.00 | 0.10 | 0.10 | 91 | 1006.9 |
| 20260506163804 | 63 | 205 | 5.0 | 17.0 | 0.00 | 0.10 | 0.10 | 91 | 1006.9 |
| 20260506163303 | 63 | 210 | 6.0 | 17.0 | 0.00 | 0.10 | 0.10 | 91 | 1006.8 |
| 20260506161803 | 62 | 195 | 9.0 | 17.0 | 0.00 | 0.10 | 0.10 | 92 | 1006.9 |
| 20260506160803 | 62 | 186 | 9.0 | 18.0 | 0.00 | 0.10 | 0.10 | 92 | 1007.0 |
| 20260506155306 | 62 | 181 | 8.0 | 14.0 | 0.00 | 0.10 | 0.10 | 92 | 1007.1 |
| 20260506154803 | 62 | 187 | 7.0 | 14.0 | 0.01 | 0.10 | 0.10 | 92 | 1007.1 |
| 20260506153803 | 62 | 189 | 9.0 | 16.0 | 0.01 | 0.10 | 0.10 | 92 | 1007.1 |
| 20260506153304 | 62 | 183 | 7.0 | 15.0 | 0.02 | 0.10 | 0.10 | 92 | 1007.1 |
| 20260506152803 | 62 | 189 | 8.0 | 15.0 | 0.03 | 0.10 | 0.10 | 92 | 1007.0 |
| 20260506151803 | 62 | 199 | 7.0 | 14.0 | 0.03 | 0.10 | 0.10 | 92 | 1007.6 |
| 20260506151303 | 62 | 200 | 7.0 | 13.0 | 0.04 | 0.10 | 0.10 | 92 | 1007.7 |
| 20260506150804 | 62 | 200 | 10.0 | 14.0 | 0.05 | 0.10 | 0.10 | 92 | 1007.8 |
| 20260506150304 | 62 | 192 | 7.0 | 13.0 | 0.05 | 0.10 | 0.10 | 91 | 1007.7 |
| 20260506145803 | 62 | 190 | 7.0 | 17.0 | 0.05 | 0.10 | 0.10 | 91 | 1007.9 |
| 20260506145305 | 62 | 167 | 7.0 | 13.0 | 0.06 | 0.10 | 0.10 | 91 | 1007.9 |
| 20260506144804 | 62 | 192 | 10.0 | 17.0 | 0.05 | 0.09 | 0.09 | 91 | 1008.0 |
| 20260506144303 | 62 | 203 | 9.0 | 16.0 | 0.06 | 0.09 | 0.09 | 91 | 1008.0 |
| 20260506143804 | 62 | 191 | 10.0 | 17.0 | 0.06 | 0.09 | 0.09 | 91 | 1007.9 |
| 20260506143303 | 62 | 188 | 8.0 | 13.0 | 0.05 | 0.08 | 0.08 | 90 | 1007.7 |
| 20260506142803 | 62 | 190 | 7.0 | 13.0 | 0.05 | 0.07 | 0.07 | 90 | 1007.9 |
| 20260506142305 | 62 | 182 | 9.0 | 14.0 | 0.05 | 0.07 | 0.07 | 90 | 1007.8 |
| 20260506141804 | 62 | 189 | 7.0 | 12.0 | 0.06 | 0.07 | 0.07 | 89 | 1007.8 |
| 20260506140803 | 62 | 206 | 7.0 | 17.0 | 0.04 | 0.05 | 0.05 | 89 | 1007.9 |
| 20260506140303 | 62 | 188 | 8.0 | 15.0 | 0.04 | 0.05 | 0.05 | 88 | 1007.9 |
| 20260506135804 | 62 | 204 | 6.0 | 13.0 | 0.04 | 0.05 | 0.05 | 88 | 1008.0 |
| 20260506135306 | 63 | 199 | 7.0 | 13.0 | 0.04 | 0.04 | 0.04 | 88 | 1008.0 |
| 20260506134803 | 63 | 190 | 7.0 | 13.0 | 0.04 | 0.04 | 0.04 | 87 | 1008.1 |
| 20260506133803 | 63 | 207 | 6.0 | 12.0 | 0.03 | 0.03 | 0.03 | 86 | 1008.5 |
| 20260506133303 | 63 | 205 | 6.0 | 13.0 | 0.03 | 0.03 | 0.03 | 86 | 1008.4 |
| 20260506132803 | 63 | 207 | 7.0 | 14.0 | 0.02 | 0.02 | 0.02 | 85 | 1008.3 |
| 20260506132306 | 64 | 194 | 7.0 | 15.0 | 0.02 | 0.02 | 0.02 | 84 | 1008.1 |
| 20260506131303 | 64 | 182 | 5.0 | 9.0 | 0.01 | 0.01 | 0.01 | 82 | 1008.0 |
| 20260506130804 | 64 | 211 | 7.0 | 12.0 | 0.01 | 0.01 | 0.01 | 82 | 1007.9 |
| 20260506125803 | 64 | 191 | 5.0 | 14.0 | 0.01 | 0.01 | 0.01 | 81 | 1007.8 |
| 20260506125305 | 65 | 206 | 6.0 | 15.0 | 0.00 | 0.00 | 0.00 | 81 | 1007.5 |
| 20260506124804 | 65 | 192 | 6.0 | 12.0 | 0.00 | 0.00 | 0.00 | 80 | 1007.6 |
| 20260506124304 | 65 | 206 | 7.0 | 12.0 | 0.00 | 0.00 | 0.00 | 79 | 1007.7 |
| 20260506123303 | 65 | 0 | 0.0 | 0.0 | 0.00 | 0.00 | 0.00 | 79 | 1007.8 |
| 20260506122803 | 65 | 0 | 0.0 | 0.0 | 0.00 | 0.00 | 0.00 | 79 | 1007.9 |
| 20260506122305 | 65 | 0 | 0.0 | 0.0 | 0.00 | 0.00 | 0.00 | 78 | 1008.1 |
| 20260506121803 | 65 | 0 | 0.0 | 0.0 | 0.00 | 0.00 | 0.00 | 78 | 1008.1 |
| 20260506121303 | 65 | 0 | 0.0 | 0.0 | 0.00 | 0.00 | 0.00 | 77 | 1008.2 |
| 20260506120804 | 66 | 0 | 0.0 | 0.0 | 0.00 | 0.00 | 0.00 | 76 | 1008.2 |
| 20260506120303 | 66 | 0 | 0.0 | 0.0 | 0.00 | 0.00 | 0.00 | 75 | 1008.2 |
| 20260506114804 | 66 | 0 | 0.0 | 0.0 | 0.00 | 0.00 | 0.00 | 72 | 1008.0 |
| 20260506114304 | 67 | 0 | 0.0 | 0.0 | 0.00 | 0.00 | 0.00 | 72 | 1007.9 |
| 20260506113805 | 67 | 0 | 0.0 | 0.0 | 0.00 | 0.00 | 0.00 | 72 | 1007.7 |
| 20260506112803 | 67 | 151 | 5.0 | 5.0 | 0.00 | 0.00 | 0.00 | 72 | 1007.6 |
| 20260506112306 | 67 | 151 | 5.0 | 18.0 | 0.00 | 0.00 | 0.00 | 72 | 1007.5 |
| 20260506111803 | 66 | 208 | 6.0 | 13.0 | 0.00 | 0.00 | 0.00 | 72 | 1007.5 |
| 20260506111303 | 66 | 199 | 9.0 | 16.0 | 0.00 | 0.00 | 0.00 | 72 | 1007.5 |
| 20260506110303 | 66 | 205 | 9.0 | 20.0 | 0.00 | 0.00 | 0.00 | 72 | 1007.4 |
| 20260506105803 | 66 | 185 | 8.0 | 17.0 | 0.00 | 0.00 | 0.00 | 72 | 1007.3 |
| 20260506105305 | 66 | 191 | 5.0 | 15.0 | 0.00 | 0.00 | 0.00 | 72 | 1007.3 |
| 20260506104804 | 66 | 196 | 9.0 | 17.0 | 0.00 | 0.00 | 0.00 | 72 | 1007.3 |
| 20260506103804 | 66 | 193 | 8.0 | 17.0 | 0.00 | 0.00 | 0.00 | 72 | 1007.2 |
| 20260506102804 | 66 | 211 | 11.0 | 16.0 | 0.00 | 0.00 | 0.00 | 72 | 1007.2 |
| 20260506101304 | 66 | 205 | 8.0 | 18.0 | 0.00 | 0.00 | 0.00 | 72 | 1007.2 |
| 20260506100804 | 66 | 205 | 6.0 | 16.0 | 0.00 | 0.00 | 0.00 | 71 | 1007.1 |
| 20260506100303 | 66 | 193 | 7.0 | 13.0 | 0.00 | 0.00 | 0.00 | 71 | 1007.1 |
| 20260506095804 | 66 | 198 | 7.0 | 17.0 | 0.00 | 0.00 | 0.00 | 71 | 1007.1 |
| 20260506095305 | 66 | 201 | 9.0 | 17.0 | 0.00 | 0.00 | 0.00 | 71 | 1007.1 |
| 20260506094804 | 66 | 212 | 10.0 | 16.0 | 0.00 | 0.00 | 0.00 | 71 | 1007.2 |
| 20260506094304 | 67 | 213 | 10.0 | 18.0 | 0.00 | 0.00 | 0.00 | 71 | 1007.2 |
| 20260506093803 | 67 | 186 | 10.0 | 21.0 | 0.00 | 0.00 | 0.00 | 71 | 1007.2 |
| 20260506092305 | 67 | 191 | 10.0 | 18.0 | 0.00 | 0.00 | 0.00 | 70 | 1007.1 |
| 20260506091803 | 67 | 196 | 9.0 | 17.0 | 0.00 | 0.00 | 0.00 | 70 | 1007.2 |
| 20260506091303 | 67 | 188 | 9.0 | 15.0 | 0.00 | 0.00 | 0.00 | 70 | 1007.2 |
| 20260506090803 | 67 | 189 | 9.0 | 14.0 | 0.00 | 0.00 | 0.00 | 69 | 1007.2 |
| 20260506090303 | 67 | 193 | 10.0 | 16.0 | 0.00 | 0.00 | 0.00 | 69 | 1007.2 |
| 20260506085804 | 68 | 185 | 11.0 | 17.0 | 0.00 | 0.00 | 0.00 | 69 | 1007.3 |
| 20260506085306 | 68 | 198 | 9.0 | 17.0 | 0.00 | 0.00 | 0.00 | 68 | 1007.4 |
| 20260506084804 | 68 | 198 | 9.0 | 18.0 | 0.00 | 0.00 | 0.00 | 68 | 1007.5 |
| 20260506084303 | 68 | 203 | 10.0 | 17.0 | 0.00 | 0.00 | 0.00 | 68 | 1007.4 |
| 20260506083803 | 68 | 184 | 9.0 | 18.0 | 0.00 | 0.00 | 0.00 | 67 | 1007.4 |
| 20260506083303 | 68 | 200 | 9.0 | 18.0 | 0.00 | 0.00 | 0.00 | 67 | 1007.4 |
| 20260506082804 | 68 | 209 | 11.0 | 17.0 | 0.00 | 0.00 | 0.00 | 66 | 1007.4 |
| 20260506081804 | 69 | 199 | 7.0 | 16.0 | 0.00 | 0.00 | 0.00 | 66 | 1007.3 |
| 20260506081303 | 69 | 199 | 8.0 | 16.0 | 0.00 | 0.00 | 0.00 | 65 | 1007.2 |
| 20260506080803 | 69 | 202 | 8.0 | 15.0 | 0.00 | 0.00 | 0.00 | 65 | 1007.2 |
| 20260506080303 | 69 | 190 | 11.0 | 20.0 | 0.00 | 0.00 | 0.00 | 64 | 1007.2 |
| 20260506073304 | 70 | 190 | 9.0 | 14.0 | 0.00 | 0.00 | 0.00 | 62 | 1007.4 |
| 20260506072803 | 70 | 192 | 7.0 | 20.0 | 0.00 | 0.00 | 0.00 | 62 | 1007.3 |
| 20260506072305 | 70 | 192 | 9.0 | 16.0 | 0.00 | 0.00 | 0.00 | 62 | 1007.4 |
| 20260506071804 | 70 | 200 | 6.0 | 14.0 | 0.00 | 0.00 | 0.00 | 61 | 1007.5 |
| 20260506071304 | 70 | 204 | 9.0 | 17.0 | 0.00 | 0.00 | 0.00 | 61 | 1007.5 |
| 20260506070804 | 70 | 208 | 7.0 | 15.0 | 0.00 | 0.00 | 0.00 | 61 | 1007.5 |
| 20260506070304 | 70 | 187 | 6.0 | 17.0 | 0.00 | 0.00 | 0.00 | 60 | 1007.6 |
| 20260506062305 | 71 | 205 | 8.0 | 17.0 | 0.00 | 0.00 | 0.00 | 57 | 1007.9 |
| 20260506061804 | 71 | 202 | 7.0 | 10.0 | 0.00 | 0.00 | 0.00 | 57 | 1007.8 |
| 20260506061303 | 71 | 204 | 8.0 | 14.0 | 0.00 | 0.00 | 0.00 | 57 | 1007.9 |
| 20260506060803 | 72 | 192 | 6.0 | 12.0 | 0.00 | 0.00 | 0.00 | 56 | 1007.9 |
| 20260506051304 | 73 | 204 | 7.0 | 18.0 | 0.00 | 0.00 | 0.00 | 52 | 1008.1 |
| 20260506050804 | 73 | 193 | 9.0 | 20.0 | 0.00 | 0.00 | 0.00 | 52 | 1008.2 |
| 20260506050304 | 73 | 215 | 11.0 | 20.0 | 0.00 | 0.00 | 0.00 | 52 | 1008.3 |
| 20260506044803 | 73 | 190 | 9.0 | 20.0 | 0.00 | 0.00 | 0.00 | 51 | 1008.3 |
| 20260506044303 | 73 | 204 | 9.0 | 16.0 | 0.00 | 0.00 | 0.00 | 51 | 1008.3 |
| 20260506043804 | 74 | 197 | 7.0 | 17.0 | 0.00 | 0.00 | 0.00 | 51 | 1008.3 |
| 20260506043304 | 74 | 195 | 13.0 | 20.0 | 0.00 | 0.00 | 0.00 | 51 | 1008.4 |
| 20260506042803 | 74 | 208 | 10.0 | 17.0 | 0.00 | 0.00 | 0.00 | 51 | 1008.3 |
| 20260506042305 | 74 | 205 | 9.0 | 20.0 | 0.00 | 0.00 | 0.00 | 50 | 1008.3 |
| 20260506041803 | 74 | 199 | 10.0 | 22.0 | 0.00 | 0.00 | 0.00 | 50 | 1008.3 |
| 20260506041303 | 74 | 203 | 7.0 | 15.0 | 0.00 | 0.00 | 0.00 | 50 | 1008.3 |
| 20260506040804 | 74 | 192 | 9.0 | 20.0 | 0.00 | 0.00 | 0.00 | 50 | 1008.3 |
| 20260506040304 | 74 | 185 | 9.0 | 16.0 | 0.00 | 0.00 | 0.00 | 50 | 1008.3 |
| 20260506035803 | 74 | 203 | 9.0 | 14.0 | 0.00 | 0.00 | 0.00 | 50 | 1008.3 |
| 20260506035306 | 74 | 202 | 9.0 | 13.0 | 0.00 | 0.00 | 0.00 | 49 | 1008.3 |
| 20260506034803 | 74 | 191 | 10.0 | 16.0 | 0.00 | 0.00 | 0.00 | 49 | 1008.2 |
| 20260506034303 | 74 | 193 | 9.0 | 17.0 | 0.00 | 0.00 | 0.00 | 49 | 1008.2 |
| 20260506033303 | 74 | 206 | 7.0 | 17.0 | 0.00 | 0.00 | 0.00 | 48 | 1008.3 |
| 20260506032803 | 74 | 214 | 7.0 | 15.0 | 0.00 | 0.00 | 0.00 | 48 | 1008.3 |
| 20260506032305 | 74 | 189 | 10.0 | 14.0 | 0.00 | 0.00 | 0.00 | 47 | 1008.3 |
| 20260506031804 | 74 | 205 | 9.0 | 20.0 | 0.00 | 0.00 | 0.00 | 46 | 1008.2 |
| 20260506031303 | 74 | 202 | 9.0 | 15.0 | 0.00 | 0.00 | 0.00 | 46 | 1008.2 |
| 20260506030803 | 74 | 206 | 5.0 | 12.0 | 0.00 | 0.00 | 0.00 | 45 | 1008.2 |
| 20260506030303 | 74 | 198 | 7.0 | 15.0 | 0.00 | 0.00 | 0.00 | 45 | 1008.2 |
| 20260506025305 | 74 | 188 | 7.0 | 15.0 | 0.00 | 0.00 | 0.00 | 43 | 1008.2 |
| 20260506024303 | 75 | 193 | 8.0 | 14.0 | 0.00 | 0.00 | 0.00 | 42 | 1008.3 |
| 20260506023804 | 75 | 189 | 6.0 | 12.0 | 0.00 | 0.00 | 0.00 | 41 | 1008.4 |
| 20260506023304 | 75 | 180 | 7.0 | 12.0 | 0.00 | 0.00 | 0.00 | 41 | 1008.4 |
| 20260506022804 | 75 | 190 | 7.0 | 14.0 | 0.00 | 0.00 | 0.00 | 41 | 1008.5 |
| 20260506022305 | 75 | 199 | 7.0 | 12.0 | 0.00 | 0.00 | 0.00 | 41 | 1008.5 |
| 20260506021804 | 75 | 190 | 7.0 | 16.0 | 0.00 | 0.00 | 0.00 | 41 | 1008.4 |
| 20260506021305 | 75 | 188 | 7.0 | 13.0 | 0.00 | 0.00 | 0.00 | 40 | 1008.3 |
| 20260506020805 | 75 | 195 | 7.0 | 16.0 | 0.00 | 0.00 | 0.00 | 40 | 1008.4 |
| 20260506020303 | 76 | 210 | 9.0 | 18.0 | 0.00 | 0.00 | 0.00 | 40 | 1008.3 |
| 20260506015803 | 76 | 193 | 6.0 | 12.0 | 0.00 | 0.00 | 0.00 | 39 | 1008.3 |
| 20260506015306 | 76 | 212 | 5.0 | 15.0 | 0.00 | 0.00 | 0.00 | 39 | 1008.3 |
| 20260506014803 | 76 | 197 | 7.0 | 12.0 | 0.00 | 0.00 | 0.00 | 38 | 1008.2 |
| 20260506014303 | 76 | 206 | 9.0 | 14.0 | 0.00 | 0.00 | 0.00 | 38 | 1008.2 |
| 20260506013803 | 76 | 194 | 7.0 | 12.0 | 0.00 | 0.00 | 0.00 | 38 | 1008.2 |
| 20260506012804 | 76 | 188 | 7.0 | 14.0 | 0.00 | 0.00 | 0.00 | 37 | 1008.0 |
| 20260506012307 | 76 | 196 | 9.0 | 15.0 | 0.00 | 0.00 | 0.00 | 37 | 1008.0 |
| 20260506011803 | 77 | 198 | 6.0 | 13.0 | 0.00 | 0.00 | 0.00 | 36 | 1008.0 |
| 20260506011303 | 77 | 204 | 6.0 | 12.0 | 0.00 | 0.00 | 0.00 | 36 | 1007.9 |
| 20260506010804 | 77 | 199 | 9.0 | 14.0 | 0.00 | 0.00 | 0.00 | 36 | 1007.8 |
| 20260506005804 | 77 | 190 | 6.0 | 12.0 | 0.00 | 0.00 | 0.00 | 35 | 1007.6 |
| 20260506005305 | 78 | 200 | 7.0 | 13.0 | 0.00 | 0.00 | 0.00 | 35 | 1007.6 |
| 20260506004803 | 78 | 202 | 8.0 | 20.0 | 0.00 | 0.00 | 0.00 | 34 | 1007.6 |
| 20260506004303 | 78 | 202 | 10.0 | 17.0 | 0.00 | 0.00 | 0.00 | 34 | 1007.4 |
| 20260506003804 | 78 | 197 | 6.0 | 12.0 | 0.00 | 0.00 | 0.00 | 34 | 1007.4 |
| 20260506002803 | 78 | 186 | 6.0 | 15.0 | 0.00 | 0.00 | 0.00 | 33 | 1007.3 |
| 20260506002305 | 79 | 195 | 7.0 | 12.0 | 0.00 | 0.00 | 0.00 | 33 | 1007.3 |
| 20260506001804 | 79 | 195 | 7.0 | 13.0 | 0.00 | 0.00 | 0.00 | 32 | 1007.2 |
| 20260506001303 | 79 | 205 | 10.0 | 15.0 | 0.00 | 0.00 | 0.00 | 31 | 1007.1 |
| 20260506000803 | 79 | 186 | 9.0 | 15.0 | 0.00 | 0.00 | 0.00 | 31 | 1007.1 |
| 20260506000303 | 79 | 195 | 9.0 | 16.0 | 0.00 | 0.00 | 0.00 | 31 | 1007.1 |
| 20260505234803 | 80 | 208 | 8.0 | 17.0 | 0.00 | 0.00 | 0.00 | 30 | 1007.0 |
| 20260505234305 | 80 | 213 | 9.0 | 22.0 | 0.00 | 0.00 | 0.00 | 30 | 1007.1 |
| 20260505233803 | 80 | 204 | 10.0 | 20.0 | 0.00 | 0.00 | 0.00 | 30 | 1007.0 |
| 20260505232804 | 80 | 197 | 10.0 | 20.0 | 0.00 | 0.00 | 0.00 | 30 | 1006.9 |
| 20260505232305 | 80 | 200 | 9.0 | 17.0 | 0.00 | 0.00 | 0.00 | 30 | 1006.8 |
| 20260505231803 | 81 | 204 | 11.0 | 23.0 | 0.00 | 0.00 | 0.00 | 29 | 1006.8 |
| 20260505231303 | 81 | 195 | 9.0 | 16.0 | 0.00 | 0.00 | 0.00 | 30 | 1006.8 |
| 20260505230803 | 81 | 177 | 9.0 | 17.0 | 0.00 | 0.00 | 0.00 | 30 | 1006.9 |
| 20260505230303 | 81 | 186 | 9.0 | 18.0 | 0.00 | 0.00 | 0.00 | 30 | 1006.9 |
| 20260505225803 | 81 | 191 | 8.0 | 16.0 | 0.00 | 0.00 | 0.00 | 30 | 1006.9 |
| 20260505225305 | 81 | 193 | 12.0 | 12.0 | 0.00 | 0.00 | 0.00 | 30 | 1007.0 |
| 20260505224803 | 81 | 197 | 8.0 | 18.0 | 0.00 | 0.00 | 0.00 | 30 | 1007.0 |
| 20260505223804 | 81 | 189 | 9.0 | 15.0 | 0.00 | 0.00 | 0.00 | 30 | 1006.9 |
| 20260505223304 | 81 | 196 | 9.0 | 15.0 | 0.00 | 0.00 | 0.00 | 30 | 1007.0 |
| 20260505222305 | 81 | 211 | 8.0 | 17.0 | 0.00 | 0.00 | 0.00 | 30 | 1007.0 |
| 20260505221804 | 82 | 195 | 10.0 | 18.0 | 0.00 | 0.00 | 0.00 | 30 | 1006.9 |
| 20260505221304 | 82 | 199 | 8.0 | 20.0 | 0.00 | 0.00 | 0.00 | 31 | 1006.9 |
| 20260505220303 | 82 | 195 | 7.0 | 20.0 | 0.00 | 0.00 | 0.00 | 31 | 1007.0 |
| 20260505215803 | 82 | 195 | 10.0 | 16.0 | 0.00 | 0.00 | 0.00 | 30 | 1007.0 |
| 20260505214303 | 83 | 210 | 9.0 | 20.0 | 0.00 | 0.00 | 0.00 | 29 | 1006.9 |
| 20260505213804 | 83 | 193 | 8.0 | 20.0 | 0.00 | 0.00 | 0.00 | 29 | 1006.9 |